Location: *
(47.7167°N, 1.7333°W)
Time: 06:14:35
(UTC+00:00)

COSMOS 2455 - Pass Details

Date: 09 April 2020
Orbit: 900 x 910 km, 67.1° (Epoch: 29 May)

Event Time Altitude Azimuth Distance (km) Brightness Sun altitude
Rises 20:00:19 0° 325° (NW) 3,546 7.1 -12.1°
Reaches altitude 10° 20:02:50 10° 326° (NW) 2,602 6.3 -12.5°
Maximum altitude 20:08:54 87° 239° (WSW) 917 2.9 -13.4°
Enters shadow 20:13:58 15° 150° (SSE) 2,239 4.4 -14.2°
